Regional Weather Roundup
Issued by NWS

Home | Current Version | Previous Version | Text Only | Print | Product List | Glossary Off
Versions: 1 2 3 4 5 6 7 8 9 10 11 12 13 14 15 16 17 18 19 20 21 22 23 24 25 26 27 28 29 30 31 32 33 34 35 36 37 38 39 40 41 42 43 44 45 46 47 48 49 50

000
ASUS43 KLOT 030500
RWRIL

ILLINOIS REGIONAL WEATHER ROUNDUP
NATIONAL WEATHER SERVICE CHICAGO/ROMEOVILLE IL
1200 AM CDT WED SEP 03 2014

NOTE: "FAIR" INDICATES FEW OR NO CLOUDS BELOW 12,000 FEET WITH NO
SIGNIFICANT WEATHER AND/OR OBSTRUCTIONS TO VISIBILITY.

* THESE STATIONS ARE NOT UNDER NWS QUALITY CONTROL. THEY ALSO MAY NOT
  REPORT WEATHER SUCH AS PRECIPITATION OR FOG.

ILZ001-002-007-009-015-016-024-030600-
NORTHWEST ILLINOIS

CITY           SKY/WX    TMP DP  RH WIND       PRES   REMARKS
MOLINE         CLEAR     62  60  93 CALM      29.99R
STERLING*      CLEAR     61  57  88 W5        29.99S
$$

ILZ003-004-008-010-011-017-018-030600-
NORTH CENTRAL ILLINOIS

CITY           SKY/WX    TMP DP  RH WIND       PRES   REMARKS
ROCKFORD       CLEAR     62  59  90 S3        29.99R
$$

ILZ005-006-012>014-019>023-030600-
NORTHEAST ILLINOIS

CITY           SKY/WX    TMP DP  RH WIND       PRES   REMARKS
CHICAGO-OHARE  PTCLDY    69  59  70 SW5       29.97R
CHICAGO-MIDWAY PTCLDY    71  61  70 SW6       29.97R
AURORA         CLEAR     62  59  90 CALM      29.99R
WAUKEGAN       CLEAR     64  60  87 SW3       29.96R
DUPAGE AIRPORT CLEAR     65  61  87 S3        29.98R
WHEELING       CLEAR     68  61  78 CALM      29.98R
NORTHERLY ISL    N/A     74  59  59 SW3         N/A
$$

LMZ740>746-030600-
SOUTHERN LAKE MICHIGAN

STATION/POSITION SKY/WX   TEMP    WIND        PRES    VSBY  WAVE
                          AIR SEA DIR/SP/G                  HT/PER
                          (F)     (DEG/KT/KT) (MB)    (MI)  (FT/S)
SOUTHERN BUOY              72 71  200/  6/  8 1013.8R         0
WAUKEGAN HARBOR            69     260/  6/  7   N/A
HARRISON CRIB              74     290/  3/  4   N/A
BURNHAM HARBOR             74     250/  2/  8   N/A
CALUMET HARBOR             72     230/  3/  4 1013.6R
MICHIGAN CITY              70     130/  8/ 10   N/A
MICHIGAN CITY 6N           71 72  180/  8/ 10   N/A           1/ 2
ST. JOSEPH                 72 73  180/  8/ 10   N/A           1
$$

ILZ025>027-034>036-040-047-049-050-058-095>099-030600-
WEST-CENTRAL ILLINOIS

CITY           SKY/WX    TMP DP  RH WIND       PRES   REMARKS
QUINCY         CLEAR     69  65  86 S5        30.01R
MACOMB*        CLEAR     60  60  98 CALM      30.02S
$$

ILZ028>032-037-038-041>044-048-051>054-059>061-030600-
CENTRAL ILLINOIS

CITY           SKY/WX    TMP DP  RH WIND       PRES   REMARKS
DECATUR        PTCLDY    69  66  90 SW7       30.02R
PEORIA         PTCLDY    69  64  84 CALM      30.00R
SPRINGFIELD    PTCLDY    69  65  86 SW3       30.01R
TAYLORVILLE    NOT AVBL
$$

ILZ033-039-045-046-055>057-062-063-030600-
EAST-CENTRAL ILLINOIS

CITY           SKY/WX    TMP DP  RH WIND       PRES   REMARKS
CHAMPAIGN      CLEAR     68  66  93 SW7       30.02R
MATTOON        CLEAR     70  67  90 SW7       30.01S
$$

ILZ079-100>102-030600-
SOUTHWEST ILLINOIS

CITY           SKY/WX    TMP DP  RH WIND       PRES   REMARKS
BELLEVILLE     FOG       66  66 100 CALM      30.02S VSB 1
CAHOKIA*       PTCLDY    67  66  97 CALM      30.03R
$$

ILZ064>066-069>071-074>076-080>082-084>086-088>090-092>094-030600-
SOUTH-CENTRAL ILLINOIS

CITY           SKY/WX    TMP DP  RH WIND       PRES   REMARKS
CARBONDALE     FOG       67  66  97 CALM      30.02S VSB 1/2
MT. VERNON     PTCLDY    64  63  94 CALM      30.03S
$$

ILZ067-068-072-073-078-083-087-091-030600-
SOUTHEAST ILLINOIS

CITY           SKY/WX    TMP DP  RH WIND       PRES   REMARKS
LAWRENCEVILLE  MOCLDY    65  64  97 CALM      30.02S FOG
ROBINSON*      FOG       65  64  99 W3        30.03S VSB 3/4
$$

ABBREVIATIONS USED IN REMARKS
   TC - TEMPERATURE IN CELSIUS
  WCI - WIND CHILL INDEX
   HX - HEAT INDEX
  VSB - VISIBILITY
$$




USA.gov is the U.S. government's official web portal to all federal, state and local government web resources and services.